SCP
1 1 3 3 2 1 1 0 0 0 0 0 0 0 0 0 0 0 0 0 1 1 1 1 1 2 2 2 2 2 1 1 1 1 1 1 1 1 1 1 1 1 1 1 1 1 1 1 1
1 2 3 3 2 1 0 0 0 0 0 0 0 0 0 0 0 0 0 0 1 1 1 1 1 2 2 3 2 2 1 1 1 1 1 1 1 1 1 1 1 1 1 1 1 1 1 1 1
2 2 3 2 1 1 0 0 0 0 0 0 0 0 0 0 0 0 0 0 0 0 1 1 2 2 3 3 3 2 2 1 1 1 1 1 1 1 1 1 1 1 1 1 1 1 1 1 1
2 3 3 2 1 0 0 0 0 0 0 0 0 0 0 0 0 0 0 0 0 1 1 2 2 2 3 3 3 2 2 2 1 1 1 1 1 1 1 1 1 1 1 1 1 1 1 1 1
3 3 2 1 0 0 0 0 0 0 0 0 0 0 0 0 0 0 0 0 0 1 1 2 2 2 2 2 2 2 2 2 1 1 1 1 1 1 1 1 1 1 1 1 1 1 1 1 1
3 3 1 1 0 0 0 0 0 0 0 0 0 0 0 0 0 0 0 0 0 1 1 1 2 2 1 1 2 2 2 2 1 1 1 1 1 1 1 1 1 1 1 1 1 1 1 1 1
3 2 1 0 0 0 0 0 0 0 0 0 0 0 0 0 0 0 1 0 0 0 1 1 1 1 1 1 1 2 2 2 1 1 1 1 1 2 1 1 1 1 1 1 1 1 1 1 1
2 1 0 0 0 0 0 0 0 0 0 0 0 1 1 0 0 1 1 0 0 0 1 1 1 1 1 1 1 1 2 2 1 1 2 2 2 2 2 2 2 2 1 1 1 1 1 1 1
1 1 0 0 0 0 0 0 0 0 0 0 1 1 1 1 1 1 0 0 0 0 0 1 1 1 1 1 1 2 2 2 2 2 2 2 3 3 3 3 3 3 2 2 2 2 1 1 1
0 0 0 0 0 0 0 0 0 0 1 1 1 1 1 1 1 1 1 0 1 1 1 1 1 1 1 1 1 2 2 2 2 3 3 3 3 4 4 4 4 4 3 3 2 2 2 2 1
0 0 0 0 0 0 0 0 0 0 1 1 1 1 1 1 1 1 1 1 1 1 1 1 1 1 1 1 1 2 2 2 3 3 3 3 2 3 3 3 4 4 3 3 3 2 2 2 2
0 0 0 0 0 0 0 0 0 1 1 1 1 1 1 1 1 1 1 1 1 1 1 1 1 1 1 1 1 2 2 2 2 3 3 2 2 2 2 2 2 2 3 3 3 3 2 2 2
0 0 0 0 0 0 0 0 1 1 1 1 1 1 1 1 1 1 1 1 1 1 2 2 2 2 1 2 2 2 2 1 2 2 3 3 2 2 2 1 1 1 2 2 2 2 2 2 2
0 0 0 0 0 0 1 1 1 1 1 1 1 2 2 1 1 1 2 2 2 2 2 2 2 2 2 2 2 2 2 2 2 2 3 3 3 3 3 2 2 1 1 2 2 2 2 3 3
0 0 0 0 0 1 2 2 1 1 1 1 2 2 2 2 2 2 2 2 2 2 2 2 2 3 2 2 2 2 2 2 2 2 3 3 4 4 4 3 2 2 2 2 2 3 3 4 4
0 0 0 0 1 2 2 2 2 2 2 2 2 3 2 2 2 2 2 3 2 2 2 2 2 3 3 2 2 2 2 2 3 3 3 3 4 4 4 3 2 2 2 2 2 3 4 5 5
0 0 0 0 1 2 2 2 2 2 2 2 2 2 2 2 2 3 3 2 2 2 2 2 3 3 3 2 2 2 2 3 3 3 3 2 3 3 3 2 2 1 2 2 3 3 5 6 6
0 0 0 0 1 1 1 1 1 1 2 2 2 2 3 3 3 3 3 2 2 2 2 3 3 3 3 2 2 2 2 3 3 2 2 2 2 2 2 2 2 2 2 3 4 5 6 8 9
0 0 0 0 0 0 1 1 1 1 1 1 2 3 3 3 4 3 3 2 2 2 3 4 4 4 3 3 2 2 3 3 3 3 2 2 2 2 2 2 2 2 2 3 4 6 8 9 10
0 0 0 0 0 0 0 1 1 1 1 1 2 3 4 4 4 3 3 2 2 3 4 4 4 4 4 3 3 3 3 3 4 4 3 3 2 2 2 2 2 2 2 3 4 6 7 9 10
0 0 0 0 0 0 0 1 2 2 1 1 2 3 4 4 3 3 3 3 3 4 5 5 5 4 4 4 3 3 3 3 4 4 4 3 3 2 2 2 2 2 2 2 4 5 6 9 11
0 0 0 0 0 1 1 1 1 1 1 1 2 3 3 4 3 3 4 4 4 4 5 5 5 4 4 4 4 3 3 3 4 4 5 4 4 3 3 3 3 2 2 3 4 5 7 9 10
0 0 0 0 1 1 1 1 1 2 3 4 5 5 5 5 4 5 6 7 6 5 5 5 5 5 4 4 4 4 3 3 4 4 5 5 5 4 4 4 3 3 3 4 5 7 8 8 8
0 0 0 0 0 0 0 1 1 2 5 9 10 8 7 6 5 6 8 8 8 7 7 6 5 5 5 4 5 5 5 5 5 5 5 5 5 5 5 4 4 5 6 6 6 6 6 6 6
0 0 0 0 0 0 0 1 1 4 7 10 10 9 7 5 5 5 6 7 8 10 10 8 7 7 6 5 5 7 8 8 7 6 5 5 5 5 5 5 6 8 8 6 5 4 4 5 5
0 0 0 0 0 0 0 1 3 6 8 7 7 5 4 3 3 3 3 4 6 9 10 11 10 10 9 9 9 9 10 9 7 6 5 5 5 5 6 7 8 8 8 6 5 4 4 4 5
0 0 0 0 0 0 1 3 6 8 7 6 4 3 2 2 2 2 3 3 5 6 8 10 10 10 10 11 12 11 11 10 9 8 8 8 8 9 9 10 10 9 7 5 5 5 4 4 5
0 0 0 0 0 0 0 2 7 9 8 6 4 2 2 1 2 2 3 3 4 5 6 8 9 9 8 9 9 8 9 11 12 12 11 12 13 15 15 14 12 10 7 5 5 5 4 5 5
0 0 0 1 1 1 0 1 5 10 10 7 4 2 2 1 1 2 2 3 3 4 5 6 8 9 8 6 5 5 7 9 10 10 10 11 14 16 17 16 14 10 7 5 4 4 5 5 6
0 0 0 1 1 1 1 1 4 10 11 7 4 3 2 2 1 2 2 3 3 4 4 6 9 10 9 7 6 5 6 7 7 7 8 10 11 13 15 16 14 11 7 5 4 5 5 6 6
Wind_Speed
10 10 8 5 4 1 10 12 13 13 12 12 12 12 15 14 10 9 7 8 9 10 10 11 11 11 11 10 10 10 10 11 12 13 13 14 15 15 15 15 15 15 16 15 15 15 14 14 13
9 10 7 4 2 5 10 12 13 12 10 11 13 14 16 15 13 10 9 8 10 11 10 10 11 11 11 10 11 11 12 13 14 14 14 14 15 16 16 16 15 16 16 15 15 15 14 13 12
11 12 6 2 5 9 11 11 11 11 9 10 13 14 12 11 11 9 9 9 10 11 12 12 12 11 11 11 11 11 12 13 14 14 14 15 14 15 15 16 15 15 15 15 14 14 13 13 12
8 7 5 2 12 12 11 9 9 10 10 10 11 12 12 10 10 10 10 10 11 12 12 12 12 11 11 11 11 12 13 13 14 14 14 14 14 15 15 15 15 15 15 14 13 13 12 12 11
8 6 1 7 12 11 9 9 10 10 10 13 14 14 12 10 12 11 9 10 11 11 12 12 12 11 11 11 12 12 13 13 13 13 13 13 13 14 14 14 14 14 14 13 13 12 11 10 9
5 3 2 7 12 11 9 9 10 11 11 13 14 13 10 10 10 9 9 9 11 11 11 11 12 12 12 12 12 12 12 12 12 12 12 13 13 13 13 13 13 13 13 12 12 11 10 9 8
6 3 4 8 11 11 10 9 11 10 11 11 11 12 10 10 9 9 8 8 10 10 10 9 9 10 11 11 11 12 12 11 11 11 12 12 12 12 12 12 12 12 12 11 11 10 10 8 7
4 3 4 8 10 11 10 10 10 10 11 9 9 10 10 10 10 9 8 8 8 8 8 8 8 9 9 9 11 11 11 10 10 10 11 11 11 11 10 10 11 11 11 11 10 9 9 8 6
4 2 5 9 9 10 9 10 10 10 11 11 12 14 13 13 11 10 8 7 7 7 6 6 7 6 8 8 10 10 10 9 9 9 10 9 6 7 7 9 12 12 11 10 10 9 8 7 6
0 2 7 8 9 9 9 9 9 9 11 12 14 15 14 11 10 10 9 8 7 7 7 5 5 5 6 6 7 5 6 6 5 5 6 4 3 4 6 10 12 12 11 10 10 9 7 5 4
1 3 7 8 8 9 8 8 8 9 10 12 13 14 12 11 9 9 8 8 8 7 6 6 5 4 4 4 4 3 3 4 4 5 5 3 3 4 5 4 6 6 8 6 7 6 4 3 2
2 4 5 7 7 7 8 9 9 10 11 13 14 14 12 11 9 8 8 8 8 7 7 7 6 5 5 4 3 3 3 3 3 4 4 3 2 2 3 2 3 3 3 3 3 2 2 2 2
1 3 4 5 6 8 8 8 9 11 12 13 13 13 11 10 10 8 8 8 8 7 7 7 6 5 4 3 2 4 3 3 3 3 3 3 2 2 3 2 2 2 2 3 2 2 2 1 1
1 2 3 4 5 7 7 7 8 11 12 12 12 11 10 9 9 9 8 7 8 7 7 7 7 6 4 3 2 2 3 3 3 3 4 4 3 3 3 2 2 1 2 2 3 3 2 1 1
2 2 3 4 6 6 7 5 6 10 11 11 11 11 10 9 9 8 8 7 7 8 7 7 7 7 4 3 2 2 3 3 3 3 4 4 4 3 3 3 3 2 2 3 2 2 2 2 2
6 5 4 4 5 6 5 6 8 10 11 11 11 11 10 9 9 9 9 7 7 8 7 5 6 7 5 3 2 2 2 3 3 2 3 4 4 4 3 3 3 3 3 3 3 2 2 1 1
9 7 5 4 5 5 5 6 10 11 10 10 9 10 11 10 9 8 9 9 8 7 7 6 5 5 5 4 2 2 2 2 2 2 2 3 3 4 3 3 3 3 2 3 3 3 3 3 2
6 5 4 4 5 5 4 7 10 10 10 10 10 10 10 10 10 9 9 9 9 8 7 6 5 4 4 3 2 1 2 2 2 2 2 3 3 3 3 3 3 3 2 2 2 3 2 2 2
8 7 5 2 3 4 4 7 9 10 10 10 10 11 10 10 11 11 10 9 9 9 7 6 5 4 3 2 2 2 2 1 2 2 3 2 2 3 3 2 3 3 2 3 4 3 3 3 2
7 9 5 3 4 4 5 6 7 9 9 10 11 11 12 11 11 10 10 9 10 9 7 6 6 5 3 2 2 2 2 2 2 2 2 3 2 2 3 3 2 3 2 3 3 3 2 2 2
9 9 8 6 6 6 5 5 8 8 8 8 10 11 12 12 12 11 10 9 10 9 8 7 6 5 4 3 2 2 2 1 2 2 2 2 2 2 2 3 3 3 3 3 3 3 3 2 2
9 8 8 8 8 6 8 5 8 10 10 10 9 10 12 12 13 12 11 10 10 10 9 7 6 5 5 4 3 3 3 2 2 2 2 2 3 3 4 3 2 2 2 2 3 3 2 3 2
7 6 8 9 8 7 8 6 6 9 10 11 11 10 11 11 12 13 12 10 10 10 10 8 7 5 5 4 4 3 2 2 2 2 3 3 3 3 4 4 3 2 2 2 2 1 2 2 2
7 7 8 9 7 8 8 6 5 6 9 10 10 10 11 11 11 11 11 10 9 10 10 10 8 6 5 5 4 3 3 2 2 3 3 3 3 3 4 4 3 3 3 3 3 2 3 2 2
9 7 5 6 6 7 7 6 3 5 7 9 10 10 11 10 10 11 11 11 9 9 9 9 9 8 6 6 5 4 4 3 3 3 3 2 2 3 3 3 3 3 3 3 3 3 3 2 2
9 9 7 6 6 5 4 4 3 7 8 9 10 10 10 10 10 10 11 11 10 9 9 9 10 8 7 6 5 4 4 3 3 3 2 2 2 3 3 4 4 3 3 3 3 3 3 3 3
10 9 9 9 8 5 3 2 3 7 9 9 10 9 8 8 9 9 10 10 10 9 9 10 9 8 7 6 5 5 5 4 3 3 2 1 1 2 3 3 3 3 3 3 3 2 2 2 2
10 8 7 7 5 6 5 5 4 6 8 9 9 8 8 7 8 9 9 9 9 9 8 9 10 9 8 7 6 6 5 4 3 2 2 1 1 1 2 2 2 2 2 3 2 2 2 2 2
10 10 9 6 6 6 5 3 3 6 7 9 8 8 8 7 7 7 7 8 8 8 8 8 8 8 7 7 6 4 5 5 4 3 2 2 1 2 1 2 2 2 2 2 2 2 2 2 2
11 10 9 7 6 7 5 3 1 5 5 7 8 8 7 6 6 5 6 7 7 7 7 8 8 8 7 6 5 5 4 4 4 3 2 2 2 2 2 2 2 2 2 2 2 2 1 1 2
Wind_Direction
191 206 219 237 243 124 58 60 65 64 63 61 61 68 62 53 58 84 105 101 100 98 96 91 79 76 71 72 79 81 85 96 109 112 114 115 117 116 117 118 117 117 119 119 118 116 116 115 116
210 213 222 242 274 66 63 62 65 64 73 76 65 66 67 64 74 95 104 100 104 102 97 88 86 80 75 76 81 85 90 97 104 110 114 114 115 116 116 118 116 116 118 119 120 121 119 117 119
238 239 247 236 52 63 69 70 78 79 75 80 78 62 58 71 82 97 107 110 105 102 97 95 91 85 81 80 83 87 95 101 105 110 112 115 117 118 120 120 120 120 121 121 121 122 121 121 121
241 238 231 72 65 67 73 80 88 87 81 77 84 78 71 68 85 100 111 109 102 101 100 103 100 92 87 87 88 90 96 102 106 108 111 116 119 121 123 124 125 123 122 122 123 124 123 123 123
239 261 237 73 75 75 78 83 85 83 84 83 85 90 86 85 96 105 106 102 97 99 102 110 110 102 95 98 99 97 98 104 112 113 116 116 118 123 126 127 127 125 125 126 126 127 127 126 125
257 257 46 77 82 81 75 75 82 82 88 96 99 96 90 101 103 104 100 102 103 104 108 112 116 112 104 103 106 109 109 110 118 120 121 122 122 124 126 128 130 130 130 129 130 131 131 132 132
262 321 70 78 87 85 79 74 78 83 82 84 99 98 105 109 105 103 103 99 100 101 110 123 128 122 117 112 112 115 115 115 120 125 127 127 127 129 131 134 135 135 135 134 135 135 136 139 143
271 336 36 75 85 86 85 82 80 86 85 85 93 104 120 122 119 114 109 98 95 97 107 120 128 132 127 124 125 126 123 122 125 130 133 135 134 133 139 141 142 142 142 142 143 143 144 146 152
279 360 42 68 82 92 96 93 93 96 95 84 78 101 120 128 126 122 114 109 105 105 106 110 123 133 130 131 135 140 137 136 136 139 141 145 145 147 150 146 145 147 149 151 154 156 157 159 170
342 59 61 70 87 98 98 101 108 109 105 97 95 103 120 130 131 126 123 121 118 117 115 111 112 122 124 122 133 150 146 144 151 146 150 159 148 141 138 141 149 152 155 157 162 166 168 181 185
105 77 75 79 88 99 103 102 98 101 105 114 119 124 133 136 132 126 124 123 120 117 111 113 103 86 92 109 125 129 128 133 145 137 141 141 133 133 129 141 151 158 162 165 160 173 188 190 169
99 70 76 93 99 100 95 94 93 88 96 116 124 133 140 140 134 133 131 128 124 122 116 110 97 86 72 72 102 118 126 133 137 141 149 139 132 128 131 140 145 154 156 149 153 164 162 162 165
114 107 100 108 117 109 110 101 99 103 108 116 125 133 141 138 134 129 127 124 125 123 114 103 100 89 85 82 88 109 119 127 126 126 132 126 129 127 121 117 124 136 131 139 146 147 137 140 133
106 85 114 127 122 118 109 108 113 116 121 127 133 139 142 137 138 135 130 126 126 121 116 115 113 110 107 107 102 106 114 114 120 126 133 134 132 135 139 135 137 149 144 140 144 143 126 96 91
193 184 176 169 158 140 121 111 120 132 137 139 141 143 140 139 137 137 135 133 130 124 118 120 124 119 116 114 124 122 125 124 121 126 135 143 155 147 150 153 159 166 143 130 131 125 117 147 153
234 214 209 191 179 157 154 140 147 152 150 146 145 145 145 143 146 146 142 139 132 128 121 121 122 121 120 115 102 104 108 121 124 131 139 146 150 156 158 162 161 160 153 147 147 156 153 146 154
235 225 212 194 190 165 163 142 153 163 153 148 151 151 150 149 149 144 147 146 136 126 122 116 108 120 129 130 123 129 125 124 127 128 141 148 157 161 162 160 157 159 161 163 169 157 158 161 156
247 250 225 201 182 174 169 145 159 168 159 159 161 157 153 153 152 151 152 144 136 130 124 122 121 118 131 132 130 130 130 127 119 128 134 141 151 155 158 156 161 164 157 154 146 150 151 156 171
262 267 266 231 179 190 193 166 165 167 171 167 164 159 158 156 154 154 156 149 142 138 136 137 137 135 136 136 145 144 138 133 128 132 126 132 140 151 156 149 154 156 155 162 162 159 163 173 164
250 266 263 237 206 217 213 178 163 173 184 170 166 163 163 160 157 156 157 155 149 145 144 141 143 149 151 137 137 152 151 149 126 121 133 148 147 163 159 162 169 158 153 160 162 168 170 179 177
239 247 251 243 233 227 222 193 175 177 182 175 170 165 165 165 162 160 161 161 157 153 154 156 154 152 154 154 156 144 140 144 130 145 142 151 158 155 140 156 161 162 168 170 177 186 178 189 200
246 243 250 254 249 237 237 219 181 181 186 182 179 170 165 166 162 163 166 167 163 157 157 148 149 154 159 172 167 168 166 160 156 148 143 159 168 163 157 166 159 159 156 172 190 185 195 193 209
257 260 256 255 262 260 252 248 192 182 182 182 177 170 160 163 164 164 167 167 167 162 158 154 152 157 163 177 174 179 176 162 156 140 152 170 168 169 167 168 164 169 166 174 190 170 203 208 228
253 256 260 257 256 252 244 251 212 192 183 175 166 163 159 160 159 160 161 162 168 165 161 158 155 160 169 178 181 192 188 173 153 161 168 181 170 174 177 173 177 179 171 183 189 196 204 218 247
235 238 247 251 242 239 232 237 205 175 166 158 158 158 157 158 158 159 159 163 169 166 161 156 158 166 173 179 186 187 188 183 180 188 193 187 178 174 181 176 177 179 177 185 181 194 215 216 234
233 235 246 260 263 262 242 228 182 149 140 139 142 145 155 158 160 162 162 166 171 171 165 158 158 166 173 178 182 182 180 188 199 200 212 188 178 166 170 171 174 178 181 186 183 198 208 210 228
237 235 242 256 274 280 250 204 143 147 140 140 139 144 149 158 162 163 162 167 171 173 171 165 160 165 172 178 177 181 189 196 199 182 201 200 163 166 163 169 168 173 175 179 183 209 221 209 214
239 244 247 249 265 263 253 239 182 164 151 144 141 141 141 153 160 160 162 163 168 172 170 165 164 167 173 179 186 187 186 189 177 184 205 170 136 117 141 151 160 173 179 184 193 210 221 218 222
224 233 241 251 253 261 253 256 168 167 160 156 153 146 147 152 147 153 156 157 163 168 167 171 165 166 174 182 190 186 178 181 178 190 195 162 156 154 161 149 160 187 185 188 202 218 213 209 231
241 237 239 244 255 270 268 259 218 159 162 153 145 138 140 141 137 141 148 154 161 167 169 174 170 174 178 179 184 180 171 174 180 184 186 174 169 173 167 158 177 198 190 206 216 227 205 207 215